EDT,Max TemperatureF,Mean TemperatureF,Min TemperatureF,Max Dew PointF,MeanDew PointF,Min DewpointF,Max Humidity, Mean Humidity, Min Humidity, Max Sea Level PressureIn, Mean Sea Level PressureIn, Min Sea Level PressureIn, Max VisibilityMiles, Mean VisibilityMiles, Min VisibilityMiles, Max Wind SpeedMPH, Mean Wind SpeedMPH, Max Gust SpeedMPH,PrecipitationIn, CloudCover, Events, WindDirDegrees
2012-10-1,62,56,51,54,50,46,94,81,63,29.93,29.76,29.67,10,10,10,13,6,21,0.05,7,,214
2012-10-2,64,57,50,57,53,48,94,87,68,30.06,30.01,29.93,10,9,3,6,1,,0.01,5,,202
2012-10-3,64,60,57,61,59,55,100,93,88,30.15,30.09,30.03,10,6,2,5,0,,0.03,8,,60
2012-10-4,64,62,60,61,60,57,100,91,82,30.16,30.10,30.03,10,9,0,5,0,,0.04,7,,215
2012-10-5,75,66,57,61,56,54,94,81,47,30.03,29.98,29.91,10,7,0,12,1,,0.00,4,,220
2012-10-6,75,60,46,59,51,39,100,75,53,29.93,29.81,29.67,10,7,0,16,3,25,0.00,4,,246
2012-10-7,53,45,37,45,39,36,93,72,51,30.07,30.02,29.94,10,10,7,7,2,,0.14,2,,211
2012-10-8,53,47,39,43,40,37,93,79,54,30.31,30.20,30.07,10,9,0,5,1,,0.02,5,,214
2012-10-9,53,45,37,46,42,36,93,83,67,30.30,30.23,30.14,10,10,2,8,1,,0.00,7,,66
2012-10-10,57,52,46,54,48,43,94,86,72,30.13,29.92,29.72,10,9,2,7,1,,0.06,8,,207
2012-10-11,53,44,35,43,34,28,93,64,38,30.10,30.01,29.82,10,10,10,16,6,24,0.00,2,,244
2012-10-12,51,40,28,37,29,21,93,68,30,30.36,30.12,29.98,10,10,6,20,4,29,0.00,3,,324
2012-10-13,51,37,23,32,24,18,93,64,26,30.46,30.38,30.29,10,10,9,10,2,22,0.00,1,,246
2012-10-14,60,51,42,54,46,27,94,83,46,30.25,30.06,29.90,10,9,0,13,6,17,0.35,6,,181
2012-10-15,69,63,57,61,56,52,94,79,64,29.89,29.71,29.60,10,10,3,17,11,25,0.19,6,,191
2012-10-16,59,48,35,52,36,30,93,61,44,29.88,29.71,29.61,10,10,10,18,6,29,0.00,4,,314
2012-10-17,62,46,30,39,32,27,100,73,30,30.00,29.94,29.88,10,10,0,7,1,,0.00,1,,217
2012-10-18,66,49,32,45,38,30,93,71,32,30.09,30.04,29.99,10,9,1,14,2,17,0.00,1,,186
2012-10-19,64,55,46,61,54,43,94,87,77,30.07,29.88,29.71,10,9,2,8,2,,0.40,8,,94
2012-10-20,71,58,44,61,53,41,100,76,38,29.75,29.67,29.60,10,8,0,13,2,18,0.03,4,,202
2012-10-21,59,47,35,43,38,34,93,69,42,29.89,29.84,29.75,10,9,1,14,4,22,0.00,5,,270
2012-10-22,64,52,39,43,38,36,93,58,34,30.01,29.93,29.88,10,10,7,15,5,25,0.00,1,,298
2012-10-23,62,48,35,46,41,32,100,79,48,30.13,30.07,30.02,10,9,1,6,2,,0.00,2,,190
2012-10-24,55,47,39,39,34,28,87,59,38,30.22,30.17,30.13,10,10,10,9,3,,0.00,6,,289
2012-10-25,59,47,35,43,39,34,93,71,45,30.29,30.25,30.22,10,10,6,8,1,,0.00,7,,215
2012-10-26,62,54,46,52,47,43,87,80,68,30.24,30.21,30.14,10,10,10,8,2,,0.00,8,,192
2012-10-27,59,56,53,54,52,50,94,87,77,30.08,30.03,30.01,10,8,4,4,0,,0.00,8,,50
2012-10-28,55,52,48,48,44,37,82,72,54,30.01,29.95,29.82,10,10,7,14,4,20,0.00,6,,42
2012-10-29,62,56,50,57,51,45,88,83,76,29.81,29.49,29.19,10,7,3,22,11,45,1.46,8,,42
2012-10-30,66,60,53,57,53,48,94,76,52,29.53,29.46,29.25,10,10,4,14,5,30,0.37,5,,143
2012-10-31,53,48,44,50,43,37,94,76,58,29.53,29.50,29.44,10,10,3,15,4,24,0.02,7,,186